sat.trackr.live / text

‹ back to catalog

STARLINK-35336

NORAD 66006 · 2025-232B

PAYLOAD ACTIVE UNKNOWN

§ Identity

Operator
Country
US
Launch date
2025-10-16
Launch site
AFETR
Launch vehicle
Mass (kg)
RCS (m²)

Purposes: comms

External: N2YO · Heavens-Above · Gunter

§ Orbital elements

Epoch: 2026-09-20T06:16:58.632672Z

Period
93.85 min
Inclination
53.1578°
Eccentricity
0.0000964
Mean motion
15.34409176 rev/d
Perigee alt
462.0 km
Apogee alt
463.3 km
Semi-major
6,840.8 km
B*
4.2224e-4
RAAN
276.7215°
Arg perigee
86.9317°
Mean anomaly
273.1796°
Rev number
5,326

§ Raw data

STARLINK-353361 66006U 25232B   26263.26178973  .00013921  00000+0  42224-3 0  99962 66006  53.1578 276.7215 0000964  86.9317 273.1796 15.34409176 53263

JSON: /api/v1/satellites/66006 · /tle

For live sub-satellite position, see the globe view (requires WebGL).

§ Visibility from observer

Set your observer location to see the next 7 days of passes ≥ 10°. The values pass through the URL so the page stays shareable.

No JS? Fill the form by hand. The geolocation button needs JavaScript.